Regional Weather Roundup
Issued by NWS Little Rock, AR

Home | Current Version | Previous Version | Text Only | Print | Product List | Glossary On
Versions: 1 2 3 4 5 6 7 8 9 10 11 12 13 14 15 16 17 18 19 20 21 22 23 24 25 26 27 28 29 30 31 32 33 34 35 36
000
ASUS44 KLZK 231605
RWRLZK

WEATHER ROUNDUP FOR ARKANSAS
NATIONAL WEATHER SERVICE LITTLE ROCK AR
1100 AM CDT THU OCT 23 2014

NOTE: "FAIR" INDICATES FEW OR NO CLOUDS BELOW 12,000 FEET WITH NO
SIGNIFICANT WEATHER AND/OR OBSTRUCTIONS TO VISIBILITY.

ARZ001-003-010-029-231700-
NORTHWEST ARKANSAS

CITY           SKY/WX    TMP DP  RH WIND       PRES   REMARKS
FAYETTEVILLE   LGT RAIN  56  50  80 SW5       30.21R
FORT SMITH     PTSUNNY   60  47  61 E6        30.21R
HARRISON       CLOUDY    55  49  80 SE5       30.20S
BENTONVILLE    CLOUDY    55  48  76 CALM      30.20F
ROGERS         LGT RAIN  54  51  90 CALM      30.21S
SILOAM SPGS    CLOUDY    55  48  76 S5        30.21F
HIGHFILL       LGT RAIN  56  51  84 S3        30.20S
SPRINGDALE     LGT RAIN  55  50  82 S3        30.22S
$$

ARZ004-005-016-231700-
NORTH CENTRAL ARKANSAS

CITY           SKY/WX    TMP DP  RH WIND       PRES   REMARKS
BATESVILLE     CLOUDY    50  45  81 CALM      30.23F
FLIPPIN          N/A     52  43  71 E3        30.23R VSB 3/4
MTN HOME       CLOUDY    52  48  86 CALM      30.21S
$$

ARZ040-041-231700-
WEST CENTRAL ARKANSAS

CITY           SKY/WX    TMP DP  RH WIND       PRES   REMARKS
MENA           CLOUDY    59  52  77 CALM      30.22F
MOUNT IDA      CLOUDY    57  52  83 VRB3      30.21R
$$

ARZ009-017-025-026-028-231700-
NORTHEAST ARKANSAS

CITY           SKY/WX    TMP DP  RH WIND       PRES   REMARKS
CORNING        FAIR      54  46  76 NW3       30.25R
JONESBORO      CLOUDY    56  47  71 VRB6      30.22F
NEWPORT        CLOUDY    53  48  83 NW3       30.25R
WALNUT RIDGE   CLOUDY    52  45  76 NW5       30.24R
BLYTHEVILLE    CLOUDY    58  45  62 SE8       30.23S
NW BLYTHEVILLE PTSUNNY   57  46  67 E3        30.22F
$$

ARZ022-023-033-042-044-231700-
CENTRAL ARKANSAS

CITY           SKY/WX    TMP DP  RH WIND       PRES   REMARKS
LITTLE ROCK    CLOUDY    54  45  71 E3        30.23R
N LITTLE ROCK  CLOUDY    54  48  80 NE10      30.23R
JACKSONVILLE   CLOUDY    53  47  79 CALM      30.24R
SEARCY         CLOUDY    53  47  79 N5        30.24S
HOT SPRINGS    CLOUDY    58  46  64 CALM      30.23R
RUSSELLVILLE   CLOUDY    56  48  74 CALM      30.23R
$$

ARZ036-231700-
EAST ARKANSAS

CITY           SKY/WX    TMP DP  RH WIND       PRES   REMARKS
WEST MEMPHIS   PTSUNNY   57  46  66 VRB3      30.21S
$$

ARZ050-053-066-070-073-231700-
SOUTHWEST ARKANSAS

CITY           SKY/WX    TMP DP  RH WIND       PRES   REMARKS
ARKADELPHIA    FAIR      56  50  80 CALM      30.23R
CAMDEN         CLOUDY    55  48  76 CALM      30.21F
TEXARKANA      CLOUDY    56  50  80 NE3       30.21R
EL DORADO      CLOUDY    55  49  80 SE3       30.20S
DE QUEEN       CLOUDY    60  50  69 NE3       30.20R
$$

ARZ056-057-069-231700-
SOUTHEAST ARKANSAS

CITY           SKY/WX    TMP DP  RH WIND       PRES   REMARKS
PINE BLUFF     CLOUDY    55  47  74 N5        30.22R
STUTTGART      CLOUDY    54  46  76 NE3       30.23R
MONTICELLO     CLOUDY    56  48  74 CALM      30.21R

$$





USA.gov is the U.S. government's official web portal to all federal, state and local government web resources and services.